User: anonymous   Login
Location: Dappach
(48.9767°N, 9.6998°E)
Time: 13:29:37
(UTC+00:00)
Language:

Cosmos 2322 Rocket - Orbit

View from above orbital plane
View from above orbital plane
View from above satellite
View from above satellite

Ground track
Ground track

The orbit data is extracted from the following two-line orbital elements,

1 23705U 95058B   24205.85762678  .00000407  00000-0  23283-3 0  9998
2 23705  71.0232 346.8791 0014384 300.2910  59.6789 14.15353983484122
Epoch (UTC): 23 July 2024 20:34:58
Eccentricity: 0.0014384
inclination: 71.0232°
perigee height: 831 km
apogee height: 851 km
right ascension of ascending node: 346.8791°
argument of perigee: 300.2910°
revolutions per day: 14.15353983
mean anomaly at epoch: 59.6789°
orbit number at epoch: 48412

The dashed part of the orbit path shows where the satellite is in the earth's shadow,  

DLR